This demonstration page uses our WeatherBlox Daily Observations layout. Learn more.

Left ArrowRight Arrow

34.74481, -87.66753

Hourly Observations for June 17, 2019

Temp ( °F °C ) Dew Point ( °F °C ) Humidity (%) Winds ( mph kmh ) Pressure ( in mb ) Visibility ( mi km ) Precip ( " mm )
12:53 am 00:53 Clear 78 25.6 69 20.6 74 74 S 3 6 29.95 1014 10 16 0.00 0.00
1:53 am 01:53 Clear 78 25.6 69 20.6 74 74 SSW 6 9 29.93 1014 10 16 0.00 0.00
2:53 am 02:53 Mostly Clear 77 25 68 20 74 74 SW 7 11 29.93 1014 10 16 0.00 0.00
3:53 am 03:53 Clear 75 23.9 68 20 79 79 SW 3 6 29.93 1014 10 16 0.00 0.00
4:53 am 04:53 Mostly Clear 75 23.9 67 19.4 76 76 S 5 7 29.94 1014 10 16 0.00 0.00
5:53 am 05:53 Sunny 72 22.2 67 19.4 84 84 S 5 7 29.96 1015 10 16 0.00 0.00
6:53 am 06:53 Sunny 74 23.3 68 20 82 82 SSE 6 9 29.97 1015 10 16 0.00 0.00
7:53 am 07:53 Partly Cloudy 76 24.4 69 20.6 79 79 SSE 6 9 29.98 1015 10 16 0.00 0.00
8:53 am 08:53 Cloudy 76 24.4 69 20.6 79 79 Calm 30.00 1016 10 16 0.00 0.00
9:53 am 09:53 Sunny 80 26.7 68 20 67 67 SSE 5 7 29.99 1016 10 16 0.00 0.00
10:53 am 10:53 Sunny 83 28.3 67 19.4 59 59 S 5 7 30.00 1016 10 16 0.00 0.00
11:53 am 11:53 Mostly Sunny 87 30.6 69 20.6 55 55 VRB 3 6 30.00 1016 10 16 0.00 0.00
12:53 pm 12:53 Mostly Sunny 89 31.7 68 20 50 50 SW 8 13 29.98 1015 10 16 0.00 0.00
1:53 pm 13:53 Mostly Cloudy 88 31.1 68 20 52 52 SSW 8 13 29.97 1015 10 16 0.00 0.00
2:53 pm 14:53 Cloudy with Light Rain 86 30 72 22.2 63 63 WSW 8 13 29.96 1015 10 16 0.00 0.03
3:53 pm 15:53 Sunny 90 32.2 70 21.1 52 52 SSE 7 11 29.93 1013 10 16 0.00 0.03
4:53 pm 16:53 Partly Cloudy 90 32.2 68 20 48 48 S 9 15 29.91 1013 10 16 0.00 0.00
5:53 pm 17:53 Mostly Sunny 86 30 69 20.6 57 57 S 13 20 29.92 1013 10 16 0.00 0.00
6:16 pm 18:16 Partly Cloudy with Nearby Thunderstorms 84 28.9 69 20.6 61 61 S 16 26 29.91 1013 10 16 0.00 0.00
6:45 pm 18:45 Mostly Cloudy with Thunderstorms 81 27.2 69 20.6 67 67 SSW 10 17 29.92 1013 10 16 0.00 0.00
6:53 pm 18:53 Mostly Cloudy with Thunderstorms 80 26.7 68 20 67 67 SW 7 11 29.93 1014 10 16 0.00 0.00
7:00 pm 19:00 Mostly Cloudy with Nearby Thunderstorms 80 26.7 68 20 67 67 WSW 3 6 29.94 1014 10 16 0.00 0.00
7:34 pm 19:34 Cloudy with Thunderstorms 76 24.4 70 21.1 82 82 NNW 8 13 29.98 1015 10 16 0.00 0.00
7:53 pm 19:53 Mostly Cloudy with Nearby Thunderstorms 75 23.9 71 21.7 88 88 N 6 9 29.99 1016 10 16 0.00 0.03
8:10 pm 20:10 Mostly Cloudy 75 23.9 71 21.7 88 88 NNW 6 9 30.00 1016 10 16 0.00 0.00
8:20 pm 20:20 Mostly Cloudy with Nearby Thunderstorms 75 23.9 71 21.7 88 88 NW 12 19 30.00 1016 10 16 0.00 0.00
8:32 pm 20:32 Cloudy with Heavy Rain 74 23.3 71 21.7 91 91 NNW 7 11 29.99 1016 10 16 0.03 0.76
8:36 pm 20:36 Cloudy with Rain 73 22.8 70 21.1 90 90 NNW 6 9 29.99 1016 10 16 0.03 0.76
8:53 pm 20:53 Mostly Clear with Light Rain 73 22.8 70 21.1 90 90 N 3 6 29.99 1016 10 16 0.04 1.02
9:53 pm 21:53 Partly Cloudy 73 22.8 70 21.1 90 90 ENE 3 6 29.98 1015 10 16 0.01 0.25
10:53 pm 22:53 Mostly Clear 73 22.8 70 21.1 90 90 ESE 6 9 29.98 1015 10 16 0.01 0.25
11:53 pm 23:53 Mostly Clear 73 22.8 70 21.1 90 90 E 3 6 29.96 1015 10 16 0.00 0.00

Powered by AerisWeather